Location: Clatteringshaws Loch
(55.0508°N, 4.2860°W)
Time: 19:22:00
(UTC+01:00)

ALOS - Visible Passes

Search period start: 29 May 2015 00:00
Search period end: 08 June 2015 00:00
Orbit: 685 x 688 km, 97.9° (Epoch: 29 May)

Date Brightness Start Highest point End Pass type
(mag) Time Alt. Az. Time Alt. Az. Time Alt. Az.
30 May 4.5 22:38:06 10° SW 22:41:47 22° W 22:45:25 10° NW visible
31 May 5.1 23:18:59 10° W 23:20:25 11° W 23:21:38 10° WNW visible
02 Jun 4.8 22:55:34 10° SW 22:58:37 17° W 23:01:32 10° NW visible
05 Jun 5.0 23:13:33 10° WSW 23:15:29 12° W 23:17:12 10° WNW visible
07 Jun 4.8 22:50:27 10° SW 22:53:41 18° W 22:56:49 10° NW visible
